[[{"header":{"parameterUnit":"m.s-1","parameterCategory":1,"la1":30.2991,"la2":30.254,"lo1":-89.0895,"lo2":-89.0444,"dy":0.0017,"dx":0.0017,"nx":28,"ny":28,"refTime":"2025-06-08T09:00:00:Z","depth":0,"parameterNumber":2,"parameterNumberName":"U-component_of_WINDS"},"data":[0,0,0,0,0,0,0,0,0,0,0,0,0,0,0,0,0,0,0,0,0,0,0,0,0,0,0,0,0,0,0,0,0,0,0,0,0,0,0,0,0,0,0,0,0,0,0,0,0,0,0,0,0,0,0,0,0,0,2.9444,2.9447,0,2.9685,2.9688,2.9691,2.9683,2.968,2.9676,2.9673,2.9924,2.9933,2.9943,0,0,0,0,0,0,0,0,0,0,0,0,0,2.898,2.8989,2.9444,2.9447,2.945,2.9685,2.9688,2.9691,2.9683,2.9679,2.9675,2.9671,2.9921,2.9932,2.9944,0,0,0,0,0,0,0,0,0,0,0,0,0,2.9198,2.8992,2.9443,2.9474,2.9479,2.9684,2.9688,2.9692,2.9684,2.9679,2.9674,2.967,2.9917,2.9931,2.9946,3.0137,0,0,2.9991,2.9997,0,0,0,0,0,0,0,0,2.9185,2.9215,2.9467,2.9473,2.9479,2.9649,2.9616,2.9841,2.9686,2.9607,2.9673,2.9667,2.9837,2.9858,2.9914,3.0148,3.0159,2.9992,3.0001,3.0007,3.0011,0,0,0,0,0,0,0,2.917,2.9204,2.954,2.947,2.9478,2.9477,2.9503,2.9659,2.9747,2.9613,2.9613,2.9642,2.9839,2.99,2.992,3.0163,2.9991,3.0004,3.0014,3.0019,3.0566,3.0572,0,0,0,0,0,0,2.9148,2.9192,2.9532,2.9547,2.9317,2.949,2.9518,2.9599,2.9745,2.9763,2.9646,2.964,2.9877,2.9903,2.9929,3.0162,3.0007,3.0021,3.0029,3.0561,3.0567,3.0574,0,0,0,0,0,0,2.9138,2.9179,2.9522,2.9369,2.9413,2.9503,2.9594,2.9607,2.9667,2.977,2.9786,2.9691,2.9874,2.9908,3.0085,3.0171,3.0027,3.0041,3.0554,3.0563,3.0571,3.0631,0,0,0,0,0,0,2.9125,2.9175,2.9248,2.9371,2.9421,2.9674,2.96,2.9615,2.9692,2.9688,2.9817,2.9834,2.9873,3.0063,3.0099,3.0189,3.0052,3.0547,3.0558,3.0568,3.0622,3.064,3.0656,0,0,0,0,0,2.9108,2.9256,2.9252,2.9293,2.9514,2.9678,2.9707,2.9748,2.9699,2.9774,2.9839,2.9829,3.0155,3.0081,3.0122,3.0217,3.0541,3.0555,3.0567,3.0614,3.0637,3.0656,0,0,0,0,0,0,2.9142,2.9273,2.9269,2.9461,2.9558,2.9677,2.9772,2.9771,2.9886,2.9877,2.9924,2.9954,3.0131,3.0191,3.0106,3.0409,3.0342,3.0364,3.0364,3.0386,3.0403,3.0386,3.0064,0,0,0,0,0,2.9172,2.9293,2.9401,2.956,2.9609,2.9682,2.9755,2.9778,2.9882,2.9923,3.0002,3.0104,3.0229,3.0311,3.0432,3.063,3.0658,3.0715,3.0732,3.0746,3.0765,3.0875,3.0902,3.0616,3.0616,3.0616,0,0,2.9235,2.9321,2.9395,2.9569,2.9647,2.9773,2.9717,2.9853,2.9947,2.9944,3.0116,3.0177,3.0294,3.0482,3.0569,3.0538,3.085,3.0763,3.0773,3.0785,3.0891,3.0918,3.0942,3.0625,3.0623,3.0622,0,0,2.9413,2.949,2.9631,2.971,2.9829,2.9877,2.991,3.0029,3.0069,3.0241,3.0242,3.0355,3.057,3.0653,3.0724,3.0933,3.0929,3.0971,3.1063,3.1169,3.1192,3.1212,3.1288,3.1314,3.0989,3.0989,3.0989,0,2.9477,2.9666,2.9704,2.9841,2.9917,2.9919,3.0063,3.0138,3.0291,3.0344,3.0307,3.0576,3.0655,3.0863,3.0913,3.097,3.1011,3.0957,3.1185,3.1206,3.1225,3.1298,3.1326,3.0994,3.0993,3.0993,3.0992,0,2.9738,2.9869,2.9969,3.0115,3.0203,3.0342,3.0402,3.0487,3.0502,3.0554,3.0729,3.0824,3.0964,3.1014,3.1031,3.1225,3.1202,3.1175,3.1108,3.1256,3.1325,3.1353,3.1,3.0998,3.0997,3.0996,0,0,2.9947,3.0111,3.0147,3.0214,3.0344,3.0447,3.0586,3.0722,3.0794,3.0898,3.1017,3.1198,3.1173,3.1253,3.1279,3.1372,3.1533,3.1333,3.1337,3.1368,3.1753,3.1774,3.1806,3.1529,3.1535,3.1539,3.1744,0,3.014,3.0387,3.0425,3.0643,3.0765,3.0767,3.0889,3.0983,3.1034,3.1146,3.1203,3.1331,3.1288,3.1336,3.1428,3.1493,3.1611,3.1479,3.1642,3.1648,3.1614,3.1842,3.1865,3.2053,3.1771,3.1775,3.1779,0,3.0399,3.051,3.0739,3.0853,3.0905,3.1014,3.1141,3.1247,3.1354,3.1385,3.1473,3.1488,3.1633,3.1559,3.1761,3.167,3.1739,3.1781,3.1789,3.1808,3.1723,3.1867,3.2114,3.2143,3.1822,3.1818,3.1815,0,3.053,3.0736,3.09,3.0956,3.1093,3.1169,3.123,3.1331,3.141,3.1521,3.1573,3.17,3.177,3.1869,3.1917,3.1859,3.2117,3.2046,3.2148,3.2147,3.2203,3.22,3.2466,3.2245,3.2245,3.2244,3.2244,0,3.0743,3.0883,3.096,3.1061,3.1219,3.1261,3.1416,3.1475,3.1565,3.1678,3.1688,3.1794,3.1851,3.1966,3.2005,3.2167,3.2198,3.2228,3.2237,3.2228,3.2225,3.2275,3.2264,3.2252,3.225,3.2249,3.2247,0,3.0916,3.0973,3.1152,3.1266,3.1298,3.1409,3.1507,3.1606,3.1656,3.1799,3.1835,3.1915,3.205,3.2108,3.2275,3.2301,3.2486,3.2485,3.245,3.2454,3.2552,3.2543,3.2862,3.2907,3.2655,3.2657,3.2659,0,3.1049,3.1157,3.1282,3.1358,3.142,3.1543,3.1623,3.1669,3.1752,3.1881,3.1964,3.2099,3.221,3.2427,3.25,3.2628,3.2631,3.2733,3.265,3.2638,3.2634,3.2627,3.2639,3.2749,3.2752,3.2754,3.2756,0,3.1279,3.1302,3.1416,3.1541,3.1636,3.1737,3.1836,3.1897,3.1959,3.2052,3.219,3.2276,3.2445,3.258,3.2712,3.2775,3.2777,3.2781,3.2811,3.2804,3.278,3.2796,3.2494,3.2774,3.2772,3.2771,3.277,3.2769,3.1438,3.1534,3.1637,3.1764,3.1843,3.1934,3.2032,3.2094,3.221,3.2351,3.2371,3.2519,3.2622,3.2799,3.2867,3.2984,3.2959,3.3002,3.3014,3.3024,3.3031,3.276,3.3008,3.3008,3.3007,3.3007,3.3007,0,3.1669,3.1735,3.1852,3.1989,3.2089,3.2079,3.2188,3.2273,3.2402,3.2498,3.2606,3.2765,3.2895,3.2978,3.311,3.3187,3.3191,3.322,3.3216,3.3231,3.3046,3.3007,3.3215,3.3215,3.3215,3.3215,3.3215,3.3215,3.1802,3.1964,3.1999,3.22,3.2265,3.2409,3.2472,3.2557,3.2634,3.281,3.2918,3.297,3.3061,3.3199,3.3319,3.334,3.3388,3.3419,3.3439,3.3265,3.3244,3.3223,3.3187,3.3429,3.3429,3.3614,3.3616,3.3617]},{"header":{"parameterUnit":"m.s-1","parameterCategory":1,"la1":30.2991,"la2":30.254,"lo1":-89.0895,"lo2":-89.0444,"dy":0.0017,"dx":0.0017,"nx":28,"ny":28,"refTime":"2025-06-08T09:00:00:Z","depth":0,"parameterNumber":3,"parameterNumberName":"V-component_of_WINDS"},"data":[0,0,0,0,0,0,0,0,0,0,0,0,0,0,0,0,0,0,0,0,0,0,0,0,0,0,0,0,0,0,0,0,0,0,0,0,0,0,0,0,0,0,0,0,0,0,0,0,0,0,0,0,0,0,0,0,0,0,7.4893,7.4895,0,7.5044,7.5046,7.5047,7.5,7.4997,7.4994,7.4991,7.5134,7.5141,7.5147,0,0,0,0,0,0,0,0,0,0,0,0,0,7.4551,7.4557,7.4893,7.4895,7.4897,7.5044,7.5046,7.5048,7.5001,7.4997,7.4993,7.4989,7.5132,7.514,7.5148,0,0,0,0,0,0,0,0,0,0,0,0,0,7.47,7.4559,7.4893,7.4891,7.4893,7.5043,7.5046,7.5048,7.5001,7.4997,7.4992,7.4987,7.5129,7.5139,7.5149,7.5307,0,0,7.518,7.5184,0,0,0,0,0,0,0,0,7.4692,7.4712,7.489,7.4892,7.4893,7.4999,7.4978,7.5135,7.5003,7.496,7.4991,7.4985,7.5092,7.5105,7.5143,7.5314,7.532,7.5181,7.5187,7.5192,7.5194,0,0,0,0,0,0,0,7.4681,7.4706,7.4952,7.4892,7.4894,7.4879,7.4895,7.5007,7.505,7.4963,7.496,7.4979,7.5092,7.5134,7.5146,7.5322,7.5181,7.519,7.5196,7.52,7.5626,7.5631,0,0,0,0,0,0,7.4671,7.4697,7.4948,7.4957,7.4779,7.4889,7.4907,7.4969,7.5049,7.5057,7.4983,7.4976,7.5119,7.5135,7.5151,7.534,7.5191,7.5201,7.5207,7.5621,7.5627,7.5632,0,0,0,0,0,0,7.4664,7.4694,7.4941,7.4827,7.4857,7.49,7.4971,7.4975,7.5017,7.5064,7.5071,7.5019,7.5116,7.5137,7.5269,7.5344,7.5206,7.5215,7.5614,7.5622,7.563,7.5719,0,0,0,0,0,0,7.4655,7.4692,7.4756,7.4829,7.4863,7.5061,7.4975,7.4981,7.5036,7.5028,7.5099,7.5106,7.5113,7.5254,7.5279,7.5356,7.5223,7.5608,7.5618,7.5627,7.571,7.5729,7.5746,0,0,0,0,0,7.4643,7.4773,7.4759,7.479,7.4945,7.5065,7.5085,7.5094,7.5042,7.5104,7.5134,7.5104,7.5332,7.5268,7.5295,7.5376,7.5603,7.5615,7.5626,7.5702,7.5726,7.5746,0,0,0,0,0,0,7.4704,7.4783,7.4768,7.4927,7.499,7.5057,7.5136,7.5119,7.5195,7.5185,7.5188,7.5205,7.534,7.5371,7.5298,7.5532,7.5459,7.5477,7.5507,7.553,7.5548,7.5537,7.5231,0,0,0,0,0,7.4737,7.4833,7.4894,7.5028,7.5061,7.5093,7.5146,7.5148,7.5212,7.5237,7.5277,7.5337,7.5422,7.5477,7.5558,7.5714,7.5727,7.5783,7.5801,7.5815,7.583,7.5912,7.5937,7.5671,7.5671,7.5671,0,0,7.4804,7.4859,7.4918,7.5042,7.5091,7.5186,7.5116,7.5219,7.5289,7.5251,7.5379,7.541,7.5477,7.5621,7.5686,7.5651,7.5907,7.583,7.5842,7.5849,7.5927,7.5952,7.5975,7.5679,7.5678,7.5676,0,0,7.4975,7.5028,7.5144,7.5196,7.5272,7.5293,7.532,7.539,7.541,7.554,7.5513,7.5592,7.574,7.5788,7.5832,7.6019,7.5993,7.6045,7.6139,7.6219,7.624,7.6258,7.6323,7.6347,7.606,7.606,7.606,0,7.5048,7.5195,7.5205,7.5312,7.5365,7.5339,7.5455,7.5502,7.5599,7.5635,7.5595,7.5778,7.5821,7.5975,7.6021,7.6057,7.6086,7.6037,7.6237,7.6255,7.6273,7.6334,7.6359,7.6066,7.6065,7.6064,7.6064,0,7.5279,7.5381,7.5465,7.5564,7.5626,7.5737,7.576,7.5821,7.5816,7.5839,7.5968,7.6019,7.6109,7.6146,7.6141,7.6298,7.6274,7.6235,7.6162,7.6304,7.6362,7.6386,7.6074,7.6072,7.607,7.6069,0,0,7.5495,7.5598,7.5629,7.5672,7.5754,7.583,7.5937,7.6029,7.608,7.6147,7.6234,7.6358,7.6323,7.6373,7.6372,7.6443,7.6585,7.6395,7.6396,7.6427,7.6759,7.6787,7.6815,7.6569,7.6573,7.6577,7.6753,0,7.5672,7.5866,7.5877,7.605,7.6142,7.6117,7.621,7.6267,7.6291,7.6369,7.6393,7.6481,7.6428,7.6458,7.6526,7.6554,7.6652,7.6541,7.6646,7.665,7.6631,7.6845,7.6876,7.704,7.6776,7.678,7.6782,0,7.5906,7.5984,7.6167,7.6235,7.6273,7.6357,7.644,7.6517,7.6579,7.6591,7.6647,7.6636,7.6741,7.6664,7.6807,7.6731,7.6774,7.6794,7.68,7.681,7.6725,7.6859,7.7092,7.7116,7.6819,7.6816,7.6813,0,7.6043,7.6193,7.6322,7.636,7.6442,7.6501,7.6537,7.6596,7.6649,7.672,7.6754,7.6835,7.6879,7.694,7.695,7.6894,7.7092,7.7017,7.7102,7.7102,7.7144,7.7142,7.7387,7.7174,7.7174,7.7173,7.7173,0,7.6239,7.6352,7.6385,7.6464,7.6588,7.6598,7.6719,7.675,7.6802,7.6883,7.6865,7.6941,7.695,7.7027,7.7034,7.715,7.7169,7.7179,7.718,7.7181,7.718,7.7209,7.7197,7.718,7.7178,7.7177,7.7176,0,7.6414,7.6441,7.6579,7.6646,7.6665,7.6753,7.6808,7.6881,7.6903,7.7006,7.703,7.7063,7.7152,7.7168,7.7273,7.7277,7.7415,7.7404,7.7395,7.7393,7.7477,7.7468,7.7748,7.7785,7.7549,7.7552,7.7553,0,7.6537,7.6624,7.6701,7.6756,7.6796,7.6885,7.694,7.6951,7.7008,7.7085,7.7149,7.7237,7.7308,7.7451,7.7481,7.756,7.755,7.7643,7.7562,7.7559,7.755,7.7545,7.7552,7.7658,7.7661,7.7663,7.7665,0,7.6753,7.6762,7.6845,7.6932,7.6999,7.7067,7.7131,7.7175,7.7194,7.7259,7.7352,7.7408,7.7515,7.7601,7.768,7.7711,7.769,7.769,7.7713,7.7715,7.7706,7.771,7.7437,7.7683,7.7682,7.768,7.7679,7.7678,7.6905,7.698,7.7046,7.7138,7.7188,7.7248,7.732,7.7351,7.7431,7.7522,7.7522,7.7623,7.768,7.7784,7.7821,7.7897,7.7867,7.7901,7.791,7.7918,7.7925,7.7695,7.7911,7.7911,7.791,7.791,7.7909,0,7.7119,7.716,7.7245,7.7337,7.7407,7.7385,7.7454,7.7513,7.7604,7.7661,7.7732,7.7837,7.7921,7.7957,7.8038,7.8092,7.8084,7.8112,7.8108,7.8115,7.7948,7.792,7.8118,7.8118,7.8117,7.8117,7.8117,7.8117,7.7239,7.7365,7.7381,7.7529,7.7568,7.7671,7.7711,7.7765,7.7811,7.793,7.8001,7.8025,7.8073,7.8157,7.8231,7.8239,7.8268,7.8302,7.8305,7.8148,7.8127,7.8107,7.808,7.8308,7.8309,7.8465,7.8467,7.8468]}]]